Time,TemperatureF,DewpointF,PressureIn,WindDirection,WindDirectionDegrees,WindSpeedMPH,WindSpeedGustMPH,Humidity,HourlyPrecipIn,Conditions,Clouds,dailyrainin,SoftwareType,DateUTC
2013-06-27 00:02:00,81.0,76.0,29.86,NW,316,0.0,0.0,84,0.00,,,0.00,,2013-06-27 05:02:00,
2013-06-27 00:12:00,81.0,76.0,29.86,NW,316,0.0,0.0,85,0.00,,,0.00,,2013-06-27 05:12:00,
2013-06-27 00:22:00,81.0,76.0,29.86,NW,316,0.0,0.0,85,0.00,,,0.00,,2013-06-27 05:22:00,
2013-06-27 00:32:00,81.0,76.0,29.86,NW,316,0.0,0.0,86,0.00,,,0.00,,2013-06-27 05:32:00,
2013-06-27 00:42:00,81.0,76.0,29.86,NW,316,0.0,0.0,86,0.00,,,0.00,,2013-06-27 05:42:00,
2013-06-27 00:53:00,81.0,76.0,29.86,NW,316,0.0,0.0,85,0.00,,,0.00,,2013-06-27 05:53:00,
2013-06-27 01:01:00,81.0,76.0,29.86,NW,316,0.0,0.0,85,0.00,,,0.00,,2013-06-27 06:01:00,
2013-06-27 01:12:00,81.0,76.0,29.86,NW,316,0.0,0.0,85,0.00,,,0.00,,2013-06-27 06:12:00,
2013-06-27 01:22:00,81.0,76.0,29.86,NW,316,3.0,9.0,84,0.00,,,0.00,,2013-06-27 06:22:00,
2013-06-27 01:34:00,81.0,76.0,29.86,NW,316,3.0,9.0,84,0.00,,,0.00,,2013-06-27 06:34:00,
2013-06-27 01:43:00,81.0,76.0,29.86,NW,316,3.0,9.0,84,0.00,,,0.00,,2013-06-27 06:43:00,
2013-06-27 01:53:00,81.0,76.0,29.86,NW,316,0.0,5.0,85,0.00,,,0.00,,2013-06-27 06:53:00,
2013-06-27 02:02:00,81.0,76.0,29.86,NW,316,0.0,0.0,85,0.00,,,0.00,,2013-06-27 07:02:00,
2013-06-27 02:12:00,81.0,76.0,29.86,NW,316,0.0,0.0,85,0.00,,,0.00,,2013-06-27 07:12:00,
2013-06-27 02:22:00,80.0,75.0,29.86,NW,316,0.0,0.0,86,0.00,,,0.00,,2013-06-27 07:22:00,
2013-06-27 02:33:00,80.0,75.0,29.86,NW,316,0.0,0.0,86,0.00,,,0.00,,2013-06-27 07:33:00,
2013-06-27 02:42:00,80.0,75.0,29.86,NW,316,0.0,0.0,86,0.00,,,0.00,,2013-06-27 07:42:00,
2013-06-27 02:52:00,80.0,75.0,29.86,NW,316,0.0,0.0,86,0.00,,,0.00,,2013-06-27 07:52:00,
2013-06-27 03:01:00,80.0,75.0,29.87,NW,316,0.0,0.0,86,0.00,,,0.00,,2013-06-27 08:01:00,
2013-06-27 03:11:00,80.0,75.0,29.87,NW,316,0.0,0.0,86,0.00,,,0.00,,2013-06-27 08:11:00,
2013-06-27 03:22:00,80.0,75.0,29.87,NW,316,0.0,0.0,86,0.00,,,0.00,,2013-06-27 08:22:00,
2013-06-27 03:34:00,80.0,75.0,29.87,NW,316,0.0,0.0,86,0.00,,,0.00,,2013-06-27 08:34:00,
2013-06-27 03:43:00,80.0,75.0,29.87,NW,316,0.0,0.0,86,0.00,,,0.00,,2013-06-27 08:43:00,
2013-06-27 03:52:00,79.0,74.0,29.88,NW,316,0.0,0.0,86,0.00,,,0.00,,2013-06-27 08:52:00,
2013-06-27 04:02:00,79.0,75.0,29.88,NW,316,0.0,0.0,87,0.00,,,0.00,,2013-06-27 09:02:00,
2013-06-27 04:11:00,79.0,75.0,29.88,NW,316,0.0,0.0,87,0.00,,,0.00,,2013-06-27 09:11:00,
2013-06-27 04:22:00,79.0,75.0,29.89,NW,316,0.0,0.0,88,0.00,,,0.00,,2013-06-27 09:22:00,
2013-06-27 04:34:00,78.0,74.0,29.88,NW,316,0.0,0.0,88,0.00,,,0.00,,2013-06-27 09:34:00,
2013-06-27 04:43:00,78.0,74.0,29.88,NW,316,0.0,0.0,88,0.00,,,0.00,,2013-06-27 09:43:00,
2013-06-27 04:53:00,78.0,74.0,29.89,NW,316,0.0,2.0,89,0.00,,,0.00,,2013-06-27 09:53:00,
2013-06-27 05:01:00,78.0,74.0,29.89,NW,316,0.0,2.0,89,0.00,,,0.00,,2013-06-27 10:01:00,
2013-06-27 05:11:00,78.0,74.0,29.89,NW,316,0.0,2.0,89,0.00,,,0.00,,2013-06-27 10:11:00,
2013-06-27 05:22:00,78.0,74.0,29.89,NW,316,0.0,2.0,89,0.00,,,0.00,,2013-06-27 10:22:00,
2013-06-27 05:32:00,76.0,73.0,29.89,NW,316,0.0,0.0,90,0.00,,,0.00,,2013-06-27 10:32:00,
2013-06-27 05:44:00,76.0,73.0,29.89,NW,316,0.0,0.0,90,0.00,,,0.00,,2013-06-27 10:44:00,
2013-06-27 05:54:00,76.0,73.0,29.90,NW,316,0.0,0.0,91,0.00,,,0.00,,2013-06-27 10:54:00,
2013-06-27 06:02:00,76.0,74.0,29.90,NW,316,0.0,0.0,93,0.00,,,0.00,,2013-06-27 11:02:00,
2013-06-27 06:11:00,76.0,74.0,29.90,NW,316,0.0,0.0,93,0.00,,,0.00,,2013-06-27 11:11:00,
2013-06-27 06:22:00,76.0,74.0,29.90,NW,316,0.0,0.0,93,0.00,,,0.00,,2013-06-27 11:22:00,
2013-06-27 06:33:00,76.0,74.0,29.90,NW,316,0.0,0.0,93,0.00,,,0.00,,2013-06-27 11:33:00,
2013-06-27 06:43:00,76.0,74.0,29.90,NW,316,0.0,0.0,93,0.00,,,0.00,,2013-06-27 11:43:00,
2013-06-27 06:52:00,76.0,74.0,29.90,NW,316,0.0,0.0,93,0.00,,,0.00,,2013-06-27 11:52:00,
2013-06-27 07:02:00,76.0,74.0,29.90,NW,316,0.0,0.0,93,0.00,,,0.00,,2013-06-27 12:02:00,
2013-06-27 07:11:00,76.0,74.0,29.90,NW,316,0.0,0.0,93,0.00,,,0.00,,2013-06-27 12:11:00,
2013-06-27 07:22:00,76.0,74.0,29.90,NW,316,0.0,0.0,93,0.00,,,0.00,,2013-06-27 12:22:00,
2013-06-27 07:34:00,78.0,75.0,29.91,NW,316,0.0,0.0,91,0.00,,,0.00,,2013-06-27 12:34:00,
2013-06-27 07:42:00,78.0,75.0,29.91,NW,316,0.0,0.0,91,0.00,,,0.00,,2013-06-27 12:42:00,
2013-06-27 08:01:00,80.0,76.0,29.90,NW,316,2.0,5.0,87,0.00,,,0.00,,2013-06-27 13:01:00,
2013-06-27 08:11:00,80.0,76.0,29.90,NW,316,2.0,5.0,87,0.00,,,0.00,,2013-06-27 13:11:00,
2013-06-27 08:22:00,81.0,76.0,29.91,NW,316,0.0,6.0,85,0.00,,,0.00,,2013-06-27 13:22:00,
2013-06-27 08:34:00,82.0,76.0,29.92,NW,316,5.0,7.0,82,0.00,,,0.00,,2013-06-27 13:34:00,
2013-06-27 08:43:00,82.0,76.0,29.92,NW,316,5.0,7.0,82,0.00,,,0.00,,2013-06-27 13:43:00,
2013-06-27 08:52:00,83.0,76.0,29.92,NW,316,1.0,5.0,80,0.00,,,0.00,,2013-06-27 13:52:00,
2013-06-27 09:02:00,84.0,77.0,29.92,NW,316,3.0,6.0,79,0.00,,,0.00,,2013-06-27 14:02:00,
2013-06-27 09:11:00,84.0,77.0,29.92,NW,316,3.0,6.0,79,0.00,,,0.00,,2013-06-27 14:11:00,
2013-06-27 09:22:00,85.0,77.0,29.92,NW,316,4.0,9.0,78,0.00,,,0.00,,2013-06-27 14:22:00,
2013-06-27 09:33:00,86.0,78.0,29.92,NW,316,3.0,8.0,77,0.00,,,0.00,,2013-06-27 14:33:00,
2013-06-27 09:43:00,86.0,78.0,29.92,NW,316,3.0,8.0,77,0.00,,,0.00,,2013-06-27 14:43:00,
2013-06-27 09:52:00,86.0,77.0,29.92,NW,316,6.0,10.0,75,0.00,,,0.00,,2013-06-27 14:52:00,
2013-06-27 10:12:00,87.0,78.0,29.92,NW,316,4.0,9.0,75,0.00,,,0.00,,2013-06-27 15:12:00,
2013-06-27 10:22:00,88.0,78.0,29.91,NW,313,5.0,9.0,72,0.00,,,0.00,,2013-06-27 15:22:00,
2013-06-27 10:33:00,88.0,78.0,29.92,NW,322,8.0,12.0,73,0.00,,,0.00,,2013-06-27 15:33:00,
2013-06-27 10:42:00,88.0,78.0,29.92,NW,322,8.0,12.0,73,0.00,,,0.00,,2013-06-27 15:42:00,
2013-06-27 10:52:00,88.0,78.0,29.93,NW,319,7.0,12.0,72,0.00,,,0.00,,2013-06-27 15:52:00,
2013-06-27 11:02:00,89.0,78.0,29.93,NW,319,7.0,11.0,71,0.00,,,0.00,,2013-06-27 16:02:00,
2013-06-27 11:11:00,89.0,78.0,29.93,NW,319,7.0,11.0,71,0.00,,,0.00,,2013-06-27 16:11:00,
2013-06-27 11:23:00,90.0,79.0,29.92,NNW,331,7.0,11.0,70,0.00,,,0.00,,2013-06-27 16:23:00,
2013-06-27 11:43:00,90.0,79.0,29.91,NW,315,6.0,11.0,70,0.00,,,0.00,,2013-06-27 16:43:00,
2013-06-27 11:53:00,90.0,79.0,29.91,NW,315,6.0,11.0,70,0.00,,,0.00,,2013-06-27 16:53:00,
2013-06-27 12:01:00,90.0,79.0,29.91,NW,315,6.0,11.0,70,0.00,,,0.00,,2013-06-27 17:01:00,
2013-06-27 12:11:00,90.0,79.0,29.91,NW,315,6.0,11.0,70,0.00,,,0.00,,2013-06-27 17:11:00,
2013-06-27 12:22:00,92.0,80.0,29.92,NW,317,8.0,13.0,68,0.00,,,0.00,,2013-06-27 17:22:00,
2013-06-27 12:33:00,92.0,79.0,29.91,NW,325,6.0,9.0,65,0.00,,,0.00,,2013-06-27 17:33:00,
2013-06-27 12:43:00,92.0,79.0,29.91,NW,325,6.0,9.0,65,0.00,,,0.00,,2013-06-27 17:43:00,
2013-06-27 12:53:00,93.0,79.0,29.91,WNW,301,6.0,12.0,63,0.00,,,0.00,,2013-06-27 17:53:00,
2013-06-27 13:01:00,92.0,78.0,29.91,NW,310,8.0,11.0,63,0.00,,,0.00,,2013-06-27 18:01:00,
2013-06-27 13:11:00,92.0,78.0,29.91,NW,310,8.0,11.0,63,0.00,,,0.00,,2013-06-27 18:11:00,
2013-06-27 13:22:00,93.0,79.0,29.91,NW,308,5.0,11.0,64,0.00,,,0.00,,2013-06-27 18:22:00,
2013-06-27 13:32:00,94.0,79.0,29.92,NW,314,6.0,12.0,63,0.00,,,0.00,,2013-06-27 18:32:00,
2013-06-27 13:44:00,94.0,79.0,29.92,NW,314,6.0,12.0,63,0.00,,,0.00,,2013-06-27 18:44:00,
2013-06-27 13:52:00,95.0,79.0,29.91,NW,322,4.0,9.0,60,0.00,,,0.00,,2013-06-27 18:52:00,
2013-06-27 14:01:00,94.0,78.0,29.91,NNW,328,3.0,11.0,60,0.00,,,0.00,,2013-06-27 19:01:00,
2013-06-27 14:11:00,94.0,78.0,29.91,NNW,328,3.0,11.0,60,0.00,,,0.00,,2013-06-27 19:11:00,
2013-06-27 14:23:00,94.0,78.0,29.91,NNW,328,3.0,11.0,60,0.00,,,0.00,,2013-06-27 19:23:00,
2013-06-27 14:34:00,94.0,77.0,29.90,NW,312,2.0,7.0,58,0.00,,,0.00,,2013-06-27 19:34:00,
2013-06-27 14:42:00,94.0,77.0,29.90,NW,312,2.0,7.0,58,0.00,,,0.00,,2013-06-27 19:42:00,
2013-06-27 14:53:00,94.0,78.0,29.89,NW,313,2.0,6.0,60,0.00,,,0.00,,2013-06-27 19:53:00,
2013-06-27 15:02:00,97.0,81.0,29.90,NNW,338,4.0,8.0,60,0.00,,,0.00,,2013-06-27 20:02:00,
2013-06-27 15:11:00,97.0,81.0,29.90,NNW,338,4.0,8.0,60,0.00,,,0.00,,2013-06-27 20:11:00,
2013-06-27 15:22:00,98.0,81.0,29.89,North,9,5.0,10.0,58,0.00,,,0.00,,2013-06-27 20:22:00,
2013-06-27 15:45:00,98.0,81.0,29.89,NNW,342,4.0,8.0,58,0.00,,,0.00,,2013-06-27 20:45:00,
2013-06-27 15:55:00,96.0,80.0,29.88,NNE,26,6.0,12.0,60,0.00,,,0.00,,2013-06-27 20:55:00,
2013-06-27 16:13:00,95.0,80.0,29.89,ENE,62,7.0,11.0,63,0.00,,,0.00,,2013-06-27 21:13:00,
2013-06-27 16:24:00,95.0,80.0,29.89,ENE,74,7.0,10.0,63,0.00,,,0.00,,2013-06-27 21:24:00,
2013-06-27 16:36:00,94.0,79.0,29.88,East,82,6.0,10.0,62,0.00,,,0.00,,2013-06-27 21:36:00,
2013-06-27 16:46:00,94.0,79.0,29.88,East,82,6.0,10.0,62,0.00,,,0.00,,2013-06-27 21:46:00,
2013-06-27 16:55:00,95.0,79.0,29.87,East,79,4.0,8.0,60,0.00,,,0.00,,2013-06-27 21:55:00,
2013-06-27 17:06:00,94.0,78.0,29.87,East,87,4.0,10.0,61,0.00,,,0.00,,2013-06-27 22:06:00,
2013-06-27 17:14:00,94.0,78.0,29.87,East,87,4.0,10.0,61,0.00,,,0.00,,2013-06-27 22:14:00,
2013-06-27 17:24:00,93.0,80.0,29.86,East,87,3.0,6.0,67,0.00,,,0.00,,2013-06-27 22:24:00,
2013-06-27 17:48:00,93.0,82.0,29.87,ENE,65,7.0,11.0,71,0.00,,,0.00,,2013-06-27 22:48:00,
2013-06-27 17:58:00,91.0,82.0,29.86,East,80,7.0,12.0,74,0.00,,,0.00,,2013-06-27 22:58:00,
2013-06-27 18:05:00,91.0,82.0,29.85,ENE,73,6.0,10.0,75,0.00,,,0.00,,2013-06-27 23:05:00,
2013-06-27 18:15:00,91.0,82.0,29.85,ENE,73,6.0,10.0,75,0.00,,,0.00,,2013-06-27 23:15:00,
2013-06-27 18:25:00,91.0,81.0,29.83,SE,142,7.0,10.0,73,0.00,,,0.00,,2013-06-27 23:25:00,
2013-06-27 18:34:00,90.0,81.0,29.83,SE,140,6.0,8.0,75,0.00,,,0.00,,2013-06-27 23:34:00,
2013-06-27 18:45:00,90.0,81.0,29.83,SE,140,6.0,8.0,75,0.00,,,0.00,,2013-06-27 23:45:00,
2013-06-27 19:06:00,90.0,82.0,29.81,SSE,147,6.0,8.0,77,0.00,,,0.00,,2013-06-28 00:06:00,
2013-06-27 19:13:00,90.0,82.0,29.81,SSE,147,6.0,8.0,77,0.00,,,0.00,,2013-06-28 00:13:00,
2013-06-27 19:34:00,88.0,81.0,29.81,SE,144,0.0,0.0,81,0.00,,,0.00,,2013-06-28 00:34:00,
2013-06-27 19:45:00,88.0,81.0,29.81,SE,144,0.0,0.0,81,0.00,,,0.00,,2013-06-28 00:45:00,
2013-06-27 19:56:00,87.0,80.0,29.79,SE,144,1.0,6.0,81,0.00,,,0.00,,2013-06-28 00:56:00,
2013-06-27 20:06:00,87.0,81.0,29.80,SE,144,2.0,5.0,82,0.00,,,0.00,,2013-06-28 01:06:00,
2013-06-27 20:14:00,87.0,81.0,29.80,SE,144,2.0,5.0,82,0.00,,,0.00,,2013-06-28 01:14:00,
2013-06-27 20:35:00,85.0,80.0,29.80,SE,144,0.0,0.0,86,0.00,,,0.00,,2013-06-28 01:35:00,
2013-06-27 20:45:00,85.0,80.0,29.80,SE,144,0.0,0.0,86,0.00,,,0.00,,2013-06-28 01:45:00,
2013-06-27 21:06:00,83.0,79.0,29.82,SE,144,0.0,0.0,88,0.00,,,0.00,,2013-06-28 02:06:00,
2013-06-27 21:17:00,83.0,79.0,29.82,SE,144,0.0,0.0,88,0.00,,,0.00,,2013-06-28 02:17:00,
2013-06-27 21:27:00,83.0,79.0,29.82,SE,144,0.0,0.0,88,0.00,,,0.00,,2013-06-28 02:27:00,
2013-06-27 21:36:00,83.0,79.0,29.82,SE,144,0.0,0.0,88,0.00,,,0.00,,2013-06-28 02:36:00,
2013-06-27 21:48:00,83.0,79.0,29.82,SE,144,0.0,0.0,88,0.00,,,0.00,,2013-06-28 02:48:00,
2013-06-27 22:07:00,82.0,79.0,29.83,SE,144,0.0,0.0,92,0.00,,,0.00,,2013-06-28 03:07:00,
2013-06-27 22:14:00,82.0,79.0,29.83,SE,144,0.0,0.0,92,0.00,,,0.00,,2013-06-28 03:14:00,
2013-06-27 22:27:00,82.0,79.0,29.83,SE,144,0.0,0.0,92,0.00,,,0.00,,2013-06-28 03:27:00,
2013-06-27 22:36:00,82.0,79.0,29.83,SE,144,0.0,0.0,92,0.00,,,0.00,,2013-06-28 03:36:00,
2013-06-27 22:44:00,83.0,80.0,29.83,SE,144,0.0,0.0,91,0.00,,,0.00,,2013-06-28 03:44:00,
2013-06-27 22:56:00,83.0,80.0,29.83,SE,144,0.0,0.0,90,0.00,,,0.00,,2013-06-28 03:56:00,
2013-06-27 23:02:00,83.0,80.0,29.83,SE,144,0.0,0.0,90,0.00,,,0.00,,2013-06-28 04:02:00,
2013-06-27 23:11:00,83.0,80.0,29.83,SE,144,0.0,0.0,90,0.00,,,0.00,,2013-06-28 04:11:00,
2013-06-27 23:22:00,83.0,79.0,29.85,SE,144,0.0,0.0,89,0.00,,,0.00,,2013-06-28 04:22:00,
2013-06-27 23:33:00,82.0,79.0,29.84,SE,144,0.0,0.0,90,0.00,,,0.00,,2013-06-28 04:33:00,
2013-06-27 23:43:00,82.0,79.0,29.84,SE,144,0.0,0.0,90,0.00,,,0.00,,2013-06-28 04:43:00,
2013-06-27 23:53:00,82.0,78.0,29.83,SE,144,0.0,0.0,89,0.00,,,0.00,,2013-06-28 04:53:00,